Regional Weather Roundup
Issued by NWS

Home | Current Version | Previous Version | Graphics & Text | Print | Product List | Glossary On
Versions: 1 2 3 4 5 6 7 8 9 10 11 12 13 14 15 16 17 18 19 20 21 22 23 24 25 26 27 28 29 30 31 32 33 34 35 36 37 38 39 40 41 42 43 44 45 46 47 48 49 50
000
ASUS45 KBOI 260910
RWRID

IDAHO REGIONAL WEATHER ROUNDUP
NATIONAL WEATHER SERVICE BOISE ID
300 AM MDT TUE MAY 26 2015

NOTE: "FAIR" INDICATES FEW OR NO CLOUDS BELOW 12000 FEET
WITH NO SIGNIFICANT WEATHER AND/OR OBSTRUCTIONS TO VISIBILITY

IDZ012-014-261000-
SOUTHWEST IDAHO


CITY           SKY/WX    TMP DP  RH WIND       PRES   REMARKS
BOISE          PTCLDY    52  49  89 S5        29.91R
CALDWELL       PTCLDY    54  43  66 SW3       29.92R
$$

IDZ016-017-261000-
SOUTHCENTRAL IDAHO


CITY           SKY/WX    TMP DP  RH WIND       PRES   REMARKS
BURLEY         PTCLDY    48  43  82 SW6       29.94S
JEROME         CLOUDY    53  45  74 SE7       29.94F
TWIN FALLS     CLOUDY    57  43  59 S12       29.92F
$$

IDZ019>023-261000-
SOUTHEAST IDAHO


CITY           SKY/WX    TMP DP  RH WIND       PRES   REMARKS
IDAHO FALLS    CLOUDY    51  45  79 SW9       29.97R
POCATELLO      PTCLDY    49  47  93 W6        29.97R
REXBURG        CLOUDY    51  42  71 SW6       29.97R
$$

IDZ006-010-011-018-031-032-261000-
CENTRAL IDAHO MOUNTAINS


CITY           SKY/WX    TMP DP  RH WIND       PRES   REMARKS
MCCALL         FOG       40  39  97 CALM      29.96R VSB 1/2
HAILEY         PTCLDY    46  43  87 NW7       29.99S
STANLEY          N/A     36  34  92 CALM      30.04S
SALMON         MOCLDY    46  46 100 CALM      29.98R
CHALLIS        PTCLDY    46  42  86 NW3       29.99R
$$

IDZ002-004-006-007-026-261000-
NORTHERN IDAHO


CITY           SKY/WX    TMP DP  RH WIND       PRES   REMARKS
LEWISTON       CLOUDY    59  51  75 NW6       29.89S
LOWELL           N/A     53  50  89 N3        29.95R
COEUR D`ALENE  MOCLDY    54  48  82 SE5       29.92R
MULLAN PASS    MOCLDY    43  40  89 NW5       29.99R
$$



USA.gov is the U.S. government's official web portal to all federal, state and local government web resources and services.